Temp
36 40 40 38 38 41 40 41 38 44 46 48 48 50 54 57 58 58 58 58 59 59 59 60 61 63 64 65 65 64 63 60 58 56 54 53 52 52 52 51 50 50 49 48
31 38 38 37 39 42 43 46 48 48 47 48 52 53 54 55 58 57 58 60 61 61 61 62 62 63 64 63 64 64 62 60 57 55 54 53 52 50 49 48 47 47 46 47
26 36 35 28 37 40 43 45 43 40 42 48 48 50 49 53 57 60 60 61 62 62 63 65 63 63 62 62 62 61 58 57 56 55 52 50 51 49 48 45 44 43 44 44
21 28 17 35 44 43 40 46 46 47 48 48 48 53 50 51 50 53 61 62 64 64 60 56 56 56 59 60 59 55 53 54 54 53 51 50 50 47 47 43 42 41 42 42
18 20 30 36 39 37 36 37 46 43 47 49 52 54 48 50 51 51 51 59 60 57 53 53 51 52 51 51 51 50 49 49 49 49 47 47 48 47 46 42 40 40 41 41
27 20 18 33 41 44 42 31 44 44 44 47 50 45 41 47 49 49 52 54 53 52 51 49 50 50 49 48 48 47 47 47 47 47 46 45 46 46 43 39 40 41 41 41
28 26 30 37 41 43 30 29 42 44 44 47 43 44 46 47 47 48 48 47 48 48 47 48 49 49 48 47 46 47 47 46 45 45 43 44 44 42 41 40 38 38 39 40
26 25 23 44 41 33 38 43 44 44 45 45 45 45 45 46 45 45 45 45 46 44 44 46 47 47 46 44 46 45 45 44 43 43 46 45 41 39 39 37 36 37 37 39
31 30 39 41 41 43 43 41 42 43 46 47 45 44 45 44 44 44 45 44 45 44 43 44 45 45 43 44 44 44 43 42 42 43 42 39 38 37 36 36 36 37 40 43
32 36 38 39 41 43 44 43 45 47 46 47 45 45 44 44 43 43 44 44 44 44 42 42 43 44 43 45 44 43 40 39 40 38 39 38 38 37 37 37 37 39 41 41
34 38 38 41 38 45 44 43 44 44 43 43 46 44 44 43 41 42 42 43 43 43 42 42 43 43 45 45 44 41 40 39 38 36 35 35 36 35 36 37 39 40 41 41
32 36 34 35 41 44 44 44 44 44 43 44 46 45 46 44 45 45 44 45 44 44 43 43 44 43 43 43 40 38 37 36 35 34 37 39 39 39 41 41 41 40 39 39
38 37 36 40 43 45 45 46 45 44 45 43 45 46 46 43 45 46 44 44 43 43 43 43 42 41 41 41 39 37 34 34 34 40 40 39 38 37 35 39 41 40 39 38
41 40 38 41 40 45 46 47 49 47 48 47 46 46 45 43 43 42 41 43 43 43 42 41 41 39 41 41 39 38 39 42 35 39 39 39 38 37 37 35 34 35 38 38
41 43 42 43 44 43 44 45 43 43 44 45 45 44 43 41 40 39 41 42 42 41 41 41 39 38 40 39 37 37 38 38 37 36 38 39 37 37 37 36 35 35 36 37
41 41 42 41 41 43 42 42 43 41 43 41 41 42 41 40 40 39 39 40 38 35 37 37 36 37 38 37 36 36 36 38 37 33 32 34 37 37 37 35 35 35 34 34
39 38 41 41 41 42 42 42 41 41 43 43 41 42 41 40 39 38 38 39 38 37 36 35 35 38 40 37 34 34 33 33 32 31 31 32 36 36 36 35 34 34 34 35
45 44 43 43 43 44 43 44 43 45 44 44 44 42 41 38 36 35 37 38 38 37 36 35 37 37 38 37 35 33 32 32 32 31 30 31 32 34 35 34 34 34 34 34
51 47 46 46 48 48 47 46 44 44 44 44 43 40 40 39 38 37 37 37 36 35 37 37 41 37 35 37 36 33 33 32 31 31 30 31 30 30 33 34 33 34 34 33
51 51 52 51 53 50 49 49 48 45 44 43 42 41 39 39 39 38 37 35 35 35 37 37 37 35 35 35 36 33 33 32 31 31 31 30 29 29 29 32 33 33 33 33
50 51 49 50 49 50 51 48 46 43 43 43 41 39 37 38 39 38 35 34 37 37 37 40 36 35 33 31 34 33 33 32 30 30 28 28 29 28 28 29 31 32 32 32
50 51 50 50 47 46 46 45 45 44 43 42 42 41 40 39 39 38 38 36 36 34 37 37 34 32 32 32 34 33 32 31 30 30 29 28 28 27 27 27 29 30 31 31
49 50 52 50 48 46 46 45 44 44 43 42 39 36 32 35 35 33 33 38 37 35 38 36 32 33 33 34 33 32 31 30 28 28 27 28 27 26 26 26 28 29 29 30
51 51 50 50 49 48 44 44 44 44 44 44 42 37 36 36 38 37 37 36 35 37 37 34 34 33 33 33 32 31 30 29 28 28 28 29 26 26 25 26 26 27 28 29
47 49 51 49 46 47 49 45 44 43 43 42 42 42 41 40 38 38 39 39 35 37 38 33 33 33 34 33 32 31 29 28 28 28 28 27 26 25 25 25 26 27 28 29
44 44 45 46 45 45 44 43 42 43 43 43 44 44 42 42 41 40 40 39 39 37 37 37 36 35 33 33 32 31 29 28 28 28 27 26 26 25 25 25 25 27 28 29
44 43 44 44 44 43 44 48 48 46 43 45 48 47 44 44 42 40 38 39 39 39 38 37 35 34 34 33 31 31 30 28 28 27 27 26 25 25 24 24 25 27 28 29
MSLP
1021.34 1020.39 1019.65 1018.72 1017.38 1016.72 1016.13 1015.09 1014.07 1010.91 1010.49 1009.50 1009.21 1008.50 1007.47 1006.37 1005.87 1006.35 1006.51 1006.93 1007.29 1007.63 1009.17 1009.57 1010.07 1010.89 1010.31 1011.23 1012.43 1012.65 1013.58 1014.19 1014.81 1015.76 1016.38 1017.43 1018.02 1018.29 1018.71 1018.87 1019.29 1019.54 1019.64 1019.71
1021.53 1020.58 1019.48 1018.17 1017.70 1016.55 1015.19 1013.98 1012.61 1011.43 1010.61 1010.18 1009.56 1008.59 1007.33 1006.66 1006.44 1006.37 1006.46 1006.48 1006.63 1007.20 1007.98 1008.75 1009.17 1010.26 1010.49 1011.22 1012.43 1012.54 1013.48 1014.20 1014.83 1015.88 1016.42 1017.55 1018.65 1019.28 1019.78 1019.71 1019.59 1019.60 1019.96 1020.23
1021.47 1020.53 1019.67 1018.39 1016.88 1015.91 1014.53 1013.24 1012.60 1012.02 1011.47 1010.72 1009.76 1009.32 1008.95 1007.97 1007.60 1006.48 1006.19 1006.13 1006.43 1006.66 1007.03 1007.58 1008.47 1009.23 1010.08 1011.59 1012.73 1013.05 1014.05 1015.23 1015.66 1016.23 1017.47 1018.17 1018.56 1018.94 1019.71 1020.61 1020.55 1020.24 1020.08 1020.35
1022.32 1021.22 1019.98 1017.54 1016.91 1016.23 1015.10 1013.64 1013.07 1012.73 1011.92 1011.33 1010.90 1010.08 1009.79 1009.14 1008.58 1007.89 1007.10 1006.16 1006.15 1006.71 1007.98 1009.11 1009.91 1010.63 1011.26 1012.04 1013.10 1013.84 1014.77 1015.92 1016.40 1017.50 1018.31 1018.77 1018.95 1019.49 1019.57 1020.52 1020.90 1021.03 1020.79 1020.36
1023.11 1021.82 1019.62 1018.14 1017.96 1017.47 1016.66 1015.17 1014.24 1013.35 1012.19 1011.27 1010.68 1010.48 1010.32 1010.17 1009.62 1008.87 1007.80 1006.78 1006.87 1007.76 1008.89 1010.01 1010.98 1011.84 1012.57 1013.73 1014.46 1015.32 1016.27 1016.94 1017.19 1017.71 1018.56 1019.51 1019.17 1019.24 1019.62 1020.01 1020.73 1021.04 1020.76 1020.36
1022.66 1021.92 1020.30 1019.25 1018.76 1018.12 1017.47 1016.03 1015.16 1014.53 1013.42 1012.11 1010.85 1011.07 1012.09 1011.97 1010.84 1010.27 1009.31 1008.93 1009.26 1009.89 1010.65 1011.39 1012.54 1012.69 1013.61 1014.96 1015.63 1016.35 1017.05 1017.73 1018.17 1019.15 1019.18 1020.00 1020.27 1019.79 1020.11 1020.40 1020.95 1021.41 1020.45 1020.33
1022.30 1021.49 1020.47 1019.69 1019.12 1017.86 1017.01 1017.44 1015.74 1015.21 1014.23 1012.58 1011.95 1012.77 1013.52 1013.27 1012.69 1012.37 1011.76 1011.74 1011.85 1012.21 1012.96 1014.06 1014.45 1014.24 1015.09 1016.22 1017.04 1018.38 1017.77 1017.71 1019.05 1019.07 1019.10 1019.96 1021.33 1020.05 1020.59 1021.13 1020.72 1020.67 1020.61 1019.99
1022.66 1021.85 1020.71 1019.66 1018.79 1018.61 1018.02 1016.83 1016.15 1015.52 1014.83 1013.47 1013.27 1013.15 1014.06 1014.24 1014.18 1014.21 1013.67 1013.69 1013.62 1013.55 1014.79 1015.95 1016.49 1016.65 1016.44 1017.40 1018.61 1019.17 1018.83 1019.54 1019.63 1019.75 1020.67 1020.24 1020.89 1020.53 1020.61 1020.97 1020.77 1020.66 1019.72 1019.28
1023.93 1022.99 1021.47 1020.84 1019.84 1018.61 1017.77 1016.79 1015.61 1015.37 1014.58 1014.57 1013.48 1014.00 1014.37 1014.90 1015.11 1015.60 1015.70 1015.51 1015.75 1015.36 1016.33 1017.21 1018.17 1018.92 1020.46 1019.31 1019.06 1020.22 1020.79 1020.41 1020.61 1020.29 1020.68 1020.85 1020.61 1020.82 1020.93 1020.77 1020.60 1019.81 1019.37 1018.63
1024.23 1022.65 1022.15 1020.89 1019.62 1017.44 1016.60 1016.77 1015.39 1014.29 1015.35 1015.49 1014.29 1014.15 1015.33 1015.90 1015.82 1016.93 1017.70 1017.28 1017.11 1018.15 1016.98 1018.14 1018.87 1020.24 1020.03 1022.81 1020.08 1021.53 1021.00 1021.75 1020.27 1021.63 1021.31 1021.11 1020.97 1020.89 1020.48 1020.44 1020.69 1019.83 1018.69 1018.71
1024.06 1023.41 1022.56 1021.12 1020.01 1017.51 1017.11 1017.87 1016.79 1016.87 1017.35 1017.19 1016.86 1016.35 1016.72 1016.94 1017.36 1018.43 1018.43 1018.87 1018.87 1019.67 1017.93 1019.47 1020.23 1020.99 1021.95 1021.98 1022.05 1023.13 1021.75 1021.95 1021.01 1021.59 1021.67 1021.04 1020.98 1021.34 1021.59 1020.91 1019.43 1018.73 1019.19 1019.16
1024.74 1024.80 1024.40 1023.38 1021.62 1020.18 1019.11 1018.89 1018.81 1018.62 1018.72 1018.67 1017.93 1017.67 1017.93 1018.84 1019.35 1019.63 1020.07 1020.21 1019.83 1019.75 1020.13 1020.58 1021.55 1021.98 1022.50 1022.17 1022.44 1022.51 1022.09 1021.93 1022.41 1022.33 1022.43 1022.28 1021.72 1021.42 1020.61 1019.06 1018.77 1019.33 1019.43 1019.20
1025.45 1025.50 1024.79 1023.57 1022.55 1021.63 1020.80 1020.47 1020.23 1019.94 1019.93 1019.90 1019.92 1019.84 1019.75 1020.02 1020.15 1020.67 1021.47 1021.98 1021.64 1021.66 1022.08 1022.52 1022.56 1022.57 1022.31 1022.11 1022.59 1023.14 1022.52 1022.94 1022.13 1022.07 1021.85 1021.98 1021.02 1020.35 1019.07 1019.53 1019.74 1019.59 1019.35 1018.92
1026.09 1025.44 1024.93 1024.14 1023.61 1022.66 1021.93 1021.59 1021.28 1021.02 1020.92 1020.77 1020.94 1021.30 1021.58 1021.97 1022.00 1022.27 1022.58 1022.77 1022.79 1022.62 1022.92 1023.01 1023.23 1023.24 1023.24 1023.33 1023.56 1023.33 1022.98 1022.47 1022.02 1021.64 1021.23 1021.15 1020.59 1020.16 1020.23 1019.90 1019.20 1019.05 1018.65 1018.35
1026.57 1025.91 1025.50 1024.80 1024.12 1023.55 1023.00 1022.66 1022.33 1022.19 1022.23 1022.23 1022.23 1022.25 1022.48 1022.62 1022.77 1023.40 1023.52 1023.23 1023.20 1023.10 1022.85 1022.89 1023.19 1023.79 1023.85 1023.75 1023.63 1023.17 1022.31 1022.05 1021.82 1021.60 1021.27 1021.03 1021.47 1020.81 1020.18 1019.87 1019.43 1018.72 1018.23 1018.04
1026.39 1026.06 1025.55 1025.07 1024.68 1024.29 1024.02 1023.81 1023.59 1023.46 1023.35 1023.45 1023.59 1023.62 1023.74 1023.89 1024.43 1024.68 1024.45 1024.04 1023.80 1023.76 1023.91 1024.12 1024.45 1024.51 1023.99 1023.36 1023.14 1023.03 1022.84 1022.35 1022.43 1022.93 1022.57 1021.91 1021.42 1020.57 1020.17 1019.82 1019.25 1018.80 1018.42 1018.03
1026.11 1026.02 1025.75 1025.42 1025.25 1025.00 1024.81 1024.63 1024.48 1024.41 1024.31 1024.47 1024.66 1024.69 1024.85 1024.98 1025.01 1024.90 1024.84 1024.65 1024.70 1024.96 1025.09 1024.91 1024.93 1024.63 1024.50 1024.14 1023.53 1023.35 1023.69 1024.01 1023.44 1022.79 1022.58 1022.01 1021.33 1020.93 1020.43 1019.78 1019.34 1018.95 1018.50 1018.01
1025.59 1025.53 1025.49 1025.39 1025.37 1025.19 1025.09 1024.96 1024.78 1024.65 1024.91 1025.07 1025.12 1025.35 1025.49 1025.85 1026.14 1026.14 1025.86 1025.57 1025.50 1025.63 1025.47 1025.09 1024.73 1024.37 1024.09 1024.05 1024.16 1024.33 1024.23 1023.87 1023.34 1022.97 1022.55 1022.17 1021.73 1021.06 1020.42 1019.93 1019.45 1018.86 1018.23 1017.66
1025.54 1025.45 1025.27 1025.17 1025.24 1025.33 1025.39 1025.51 1025.67 1025.79 1025.81 1025.88 1026.07 1026.39 1026.51 1026.47 1026.43 1026.35 1026.19 1026.10 1026.04 1025.93 1025.54 1025.23 1025.09 1024.95 1024.80 1024.73 1024.58 1024.39 1024.13 1023.84 1023.52 1023.13 1022.72 1022.20 1021.61 1021.08 1020.65 1020.04 1019.40 1018.77 1018.11 1017.41
1025.39 1025.31 1025.25 1025.20 1025.13 1025.37 1025.66 1025.80 1025.87 1026.14 1026.37 1026.40 1026.63 1026.77 1026.86 1026.87 1026.93 1026.85 1026.74 1026.76 1026.59 1026.38 1025.91 1025.68 1025.42 1025.28 1025.14 1024.91 1024.64 1024.44 1024.19 1023.92 1023.67 1023.22 1022.70 1022.21 1021.79 1021.31 1020.74 1020.12 1019.41 1018.65 1017.98 1017.29
1025.36 1025.14 1025.25 1025.27 1025.37 1025.45 1025.73 1026.11 1026.35 1026.67 1026.84 1026.88 1027.07 1027.27 1027.29 1027.28 1027.25 1027.15 1027.11 1027.01 1026.51 1026.17 1025.83 1025.65 1025.56 1025.35 1025.18 1024.94 1024.70 1024.49 1024.22 1023.98 1023.74 1023.37 1022.92 1022.50 1021.99 1021.45 1020.86 1020.22 1019.45 1018.69 1017.93 1017.20
1025.79 1025.48 1025.34 1025.45 1025.65 1026.00 1026.18 1026.35 1026.54 1026.83 1027.09 1027.31 1027.45 1027.53 1027.51 1027.46 1027.31 1027.08 1026.84 1026.96 1026.50 1026.13 1025.89 1025.78 1025.59 1025.37 1025.21 1025.09 1025.01 1024.81 1024.49 1024.17 1023.89 1023.51 1023.12 1022.67 1022.21 1021.65 1021.03 1020.31 1019.52 1018.67 1017.86 1017.06
1026.44 1026.02 1025.71 1025.77 1025.98 1026.21 1026.36 1026.50 1026.71 1026.89 1027.05 1027.19 1027.35 1027.49 1027.60 1027.56 1027.35 1027.27 1026.86 1026.55 1026.42 1026.20 1026.17 1026.18 1025.99 1025.88 1025.77 1025.62 1025.41 1025.11 1024.72 1024.41 1024.11 1023.75 1023.32 1022.87 1022.37 1021.82 1021.17 1020.40 1019.54 1018.67 1017.77 1016.88
1026.86 1026.58 1026.48 1026.27 1026.33 1026.57 1026.71 1026.67 1026.70 1026.79 1026.94 1027.05 1027.13 1027.50 1027.61 1027.54 1027.17 1026.99 1026.97 1026.78 1026.61 1026.64 1026.60 1026.51 1026.39 1026.25 1026.08 1025.89 1025.69 1025.39 1025.00 1024.65 1024.28 1023.87 1023.41 1022.95 1022.42 1021.78 1021.11 1020.35 1019.47 1018.58 1017.66 1016.72
1027.48 1027.11 1026.67 1026.58 1026.63 1026.55 1026.24 1026.14 1026.35 1026.53 1026.72 1026.88 1026.97 1026.98 1027.07 1027.08 1027.33 1027.17 1026.94 1026.85 1026.80 1026.75 1026.72 1026.65 1026.57 1026.47 1026.34 1026.16 1025.93 1025.59 1025.23 1024.86 1024.48 1024.06 1023.58 1023.09 1022.49 1021.83 1021.10 1020.31 1019.44 1018.47 1017.45 1016.53
1027.99 1027.84 1027.53 1027.35 1027.23 1026.77 1026.39 1026.04 1026.17 1026.20 1026.36 1026.51 1026.53 1026.47 1026.56 1026.55 1026.69 1026.89 1026.89 1026.91 1026.87 1026.75 1026.69 1026.63 1026.62 1026.66 1026.62 1026.47 1026.21 1025.82 1025.46 1025.04 1024.63 1024.21 1023.76 1023.21 1022.57 1021.88 1021.11 1020.24 1019.30 1018.31 1017.32 1016.34
1028.53 1028.21 1027.98 1027.63 1027.20 1026.90 1026.55 1026.23 1026.04 1026.09 1025.99 1026.06 1026.11 1026.07 1026.22 1026.29 1026.58 1026.68 1026.77 1026.89 1026.79 1026.69 1026.70 1026.72 1026.75 1026.86 1026.91 1026.76 1026.45 1026.10 1025.69 1025.31 1024.81 1024.35 1023.84 1023.25 1022.58 1021.87 1021.08 1020.21 1019.25 1018.15 1017.11 1016.17
Wind_Speed
12 14 14 21 25 18 13 11 12 19 20 8 12 12 11 4 12 13 14 13 16 20 19 21 21 19 17 17 15 14 13 11 11 8 7 6 5 5 5 6 5 5 5 5
16 17 18 12 12 15 16 19 14 20 21 3 12 11 8 10 12 14 17 18 18 19 21 23 22 16 12 12 12 11 11 11 9 8 8 7 6 6 5 5 5 6 5 3
11 7 8 10 4 8 12 4 3 4 5 13 18 15 13 9 7 11 17 19 20 21 22 21 17 15 14 10 7 7 7 6 9 11 9 7 7 7 6 5 3 4 3 3
6 2 3 8 8 10 11 9 5 8 11 12 15 17 8 11 9 12 9 14 17 14 6 6 6 9 9 9 10 12 14 13 14 12 10 8 8 6 6 3 4 3 4 3
3 3 8 4 8 10 8 14 14 13 14 15 17 13 7 16 14 13 8 6 4 8 13 12 14 14 18 17 14 15 14 13 12 12 10 5 5 5 3 5 3 3 3 5
3 3 4 6 16 17 13 10 11 16 16 18 14 5 5 13 14 16 17 16 16 16 16 17 14 18 20 16 15 15 13 12 10 10 9 5 3 3 3 2 2 4 5 5
7 4 4 6 20 19 4 7 20 15 17 8 6 7 8 11 17 17 18 21 20 21 20 16 14 17 20 15 15 10 14 12 8 9 7 4 2 2 0 3 2 3 5 6
4 3 5 12 19 5 4 12 14 16 13 6 14 16 13 14 17 18 22 23 23 23 22 18 17 15 17 17 10 9 12 11 6 6 2 3 1 1 1 3 4 6 4 5
4 5 11 15 19 13 13 16 19 13 6 1 20 16 17 17 19 17 16 16 17 20 21 18 17 14 12 9 10 7 7 4 0 4 2 3 4 5 3 4 4 4 4 4
7 5 15 20 19 18 13 6 17 18 16 10 7 19 14 14 17 17 14 14 17 14 22 16 16 11 12 4 9 4 6 4 5 4 5 2 1 2 4 5 4 4 5 6
5 5 15 15 24 15 18 14 19 21 17 15 9 18 18 17 18 13 13 11 13 12 16 15 12 10 4 4 5 4 6 4 7 5 5 6 6 3 4 6 3 6 6 6
3 9 5 9 17 17 13 16 16 17 18 16 16 19 17 15 14 14 12 11 12 12 13 12 10 9 7 6 5 5 6 6 4 1 2 4 5 5 5 10 13 12 12 9
5 7 8 9 12 12 13 13 14 13 13 14 12 13 15 14 15 17 12 11 11 12 11 9 8 9 7 8 7 5 5 2 3 4 5 4 4 6 10 9 11 9 10 12
7 7 6 12 9 14 14 12 14 13 13 13 14 14 13 12 13 12 9 9 9 10 8 8 8 7 4 4 2 2 1 3 1 3 4 5 6 6 5 7 9 8 7 11
7 8 6 6 6 9 9 9 12 11 12 12 11 12 12 12 11 7 6 8 7 8 9 9 9 6 5 4 4 5 6 6 6 7 7 7 5 5 5 6 7 8 9 8
4 4 7 8 9 10 9 10 10 8 10 9 9 11 9 9 7 6 6 6 8 9 9 8 5 4 4 6 7 6 6 15 9 5 4 5 5 6 6 6 7 7 8 9
3 3 4 5 7 7 6 5 6 5 7 8 6 7 7 7 7 7 7 6 7 6 4 5 4 5 4 5 6 6 4 4 5 4 4 5 6 6 7 7 7 8 8 8
3 1 2 2 3 4 6 6 6 8 7 6 7 7 7 7 5 4 3 4 6 5 4 4 4 5 7 7 5 3 3 4 4 4 4 5 6 6 7 7 8 8 9 8
2 4 2 2 1 4 4 5 6 5 6 6 7 5 4 3 5 4 4 6 6 6 7 6 7 5 5 6 5 3 4 5 5 5 4 6 5 5 7 8 9 9 9 9
2 1 2 1 2 4 4 3 5 7 5 6 5 5 5 4 4 3 3 2 4 4 6 6 4 5 5 6 6 3 4 5 5 6 6 6 6 7 7 10 10 9 10 9
6 2 2 2 4 4 4 5 5 5 4 5 6 3 2 0 0 1 3 3 5 6 7 5 5 4 4 4 4 4 5 5 5 7 6 6 8 8 8 9 10 9 10 10
7 3 2 5 6 5 5 5 5 5 5 4 3 3 2 1 2 3 4 4 4 6 5 5 5 5 4 5 5 5 5 5 5 6 6 7 7 8 9 9 10 10 10 10
4 6 4 2 4 4 4 4 4 4 4 3 3 1 1 3 3 2 4 5 4 5 5 5 5 7 6 5 4 5 6 6 5 6 6 6 7 7 8 9 10 10 10 10
2 4 7 4 2 2 2 3 4 5 4 3 4 4 2 2 4 1 3 3 4 6 4 3 5 6 5 4 4 5 5 5 5 6 6 9 7 7 8 9 10 10 10 12
5 5 2 5 5 4 5 6 6 5 4 4 5 4 5 4 3 3 1 3 4 4 4 4 5 5 4 4 5 5 5 5 6 6 7 7 8 9 9 9 10 11 11 11
6 4 4 5 3 4 4 2 3 3 4 4 4 4 3 4 1 2 3 3 2 3 3 2 2 3 4 5 5 6 6 6 7 7 8 8 8 9 9 11 11 11 11 11
5 6 5 6 5 5 4 2 1 3 2 3 3 2 3 1 1 2 3 2 1 1 2 2 2 3 4 5 5 6 6 6 7 7 7 8 8 9 10 10 11 11 11 11
Wind_Direction
268 282 299 287 289 290 264 261 258 287 286 290 313 300 277 251 151 162 173 181 180 166 175 191 190 204 184 184 187 175 172 169 170 154 134 117 117 131 124 116 115 108 98 81
284 275 266 275 298 282 267 262 254 266 264 3 313 314 312 185 178 173 182 185 185 182 179 192 192 194 187 182 191 169 173 177 149 126 106 103 92 78 76 88 96 95 85 80
280 277 291 294 241 277 277 210 269 259 312 325 328 332 338 322 287 203 183 184 187 190 193 193 188 183 175 171 171 154 104 95 103 94 92 90 93 93 82 57 62 81 64 17
278 238 247 242 9 321 319 281 3 311 306 320 317 308 12 10 341 306 255 203 199 199 145 99 100 92 100 98 105 94 91 93 83 81 78 81 87 88 93 72 43 11 356 355
290 246 280 325 16 341 346 301 302 323 326 333 318 286 20 7 9 349 313 285 188 113 110 101 97 98 90 84 90 90 85 79 88 98 86 62 94 86 72 66 9 317 302 327
255 249 272 22 338 324 304 254 358 332 325 317 316 241 18 15 36 33 43 54 68 76 82 85 91 98 92 91 87 84 89 84 80 59 78 64 19 72 47 65 283 275 310 282
294 272 287 1 330 317 225 310 319 326 313 297 87 67 58 43 50 55 63 67 72 68 69 69 79 86 83 82 78 68 80 78 94 90 89 83 279 73 55 266 281 298 263 273
314 316 330 338 331 320 273 295 301 304 304 91 87 92 76 65 66 65 68 67 65 69 61 53 52 58 85 79 73 81 72 68 71 90 161 132 124 61 298 306 306 278 281 280
294 280 295 312 304 304 294 287 299 285 299 120 113 90 82 76 60 51 55 71 75 81 79 67 57 60 44 82 99 78 72 141 61 69 59 11 20 351 314 299 284 302 280 315
335 331 327 318 321 297 291 339 336 66 42 27 76 86 77 64 75 66 50 60 71 69 82 81 75 67 65 306 62 97 108 24 71 35 27 11 261 322 357 352 300 287 341 323
261 316 307 343 341 32 70 64 51 63 59 49 53 87 91 83 78 75 70 77 74 85 78 82 74 67 57 60 88 90 77 47 50 34 9 5 357 319 262 250 313 349 321 301
320 2 337 316 11 24 41 64 63 65 63 54 52 60 67 77 83 86 78 63 63 60 79 76 73 69 50 46 65 58 46 32 15 7 2 355 340 328 321 354 348 328 330 340
14 6 334 0 9 10 38 73 81 77 79 80 65 62 63 67 70 72 72 71 64 68 77 78 64 53 36 38 47 43 51 1 348 9 20 339 349 344 356 348 338 326 316 315
16 311 8 16 12 18 24 43 63 64 64 69 73 70 75 80 70 65 61 68 74 78 79 86 75 62 55 81 97 115 136 37 33 358 6 345 347 344 327 323 332 328 331 319
10 357 359 309 15 17 21 23 43 45 55 55 58 68 66 61 54 49 44 55 55 61 51 55 53 34 16 12 3 6 19 13 7 358 345 340 307 296 313 318 322 320 330 323
24 347 335 0 359 15 31 29 46 38 52 50 58 59 57 56 62 60 42 36 45 31 23 28 32 322 347 16 10 6 4 7 4 322 303 304 306 332 328 324 327 329 322 322
143 23 8 358 7 12 33 37 55 59 66 82 81 72 67 65 52 45 29 30 50 41 22 32 5 357 344 8 14 12 355 312 306 325 320 315 329 338 330 330 328 321 318 316
95 131 244 288 351 36 37 41 44 44 44 68 76 72 64 61 77 78 29 30 37 29 19 4 10 9 7 7 5 341 333 329 330 335 324 327 321 324 332 329 324 319 320 315
140 144 210 248 76 75 68 73 67 59 59 80 85 85 98 79 58 40 25 34 18 10 340 346 346 356 349 350 4 355 353 346 340 332 318 318 330 330 330 325 323 320 320 317
294 156 189 270 83 117 109 100 90 87 68 86 90 78 64 41 54 49 14 340 265 256 291 282 336 335 334 341 357 7 350 349 342 340 344 343 337 332 326 324 321 320 321 318
1 226 306 9 46 64 131 106 101 100 101 109 115 132 150 340 25 185 40 3 300 308 310 326 346 333 345 350 12 12 351 349 350 346 334 334 333 334 328 324 324 322 319 319
336 34 46 77 90 80 86 113 118 121 124 135 157 179 201 311 357 332 239 232 302 335 345 3 0 2 12 25 19 4 351 349 343 341 339 336 335 331 326 323 322 321 318 315
16 343 16 44 122 145 130 138 150 155 162 172 190 268 322 275 279 6 353 338 350 16 23 22 11 39 31 24 12 354 347 346 337 333 326 326 324 321 319 318 318 318 315 314
35 33 15 7 96 139 214 239 210 208 210 211 199 193 221 325 315 233 275 324 59 54 45 39 50 45 31 12 6 352 342 338 330 328 325 332 322 319 318 316 316 316 313 313
351 349 28 31 14 340 278 226 208 224 229 244 260 242 237 224 184 303 29 94 70 66 55 40 51 41 26 11 358 345 343 334 333 335 332 329 325 323 318 316 314 315 314 314
12 4 343 349 317 315 316 318 218 257 214 232 261 237 249 252 173 203 165 155 109 82 67 19 43 43 22 10 353 343 342 336 338 335 332 325 321 319 318 317 317 316 315 315
18 18 2 1 356 342 342 6 33 344 49 147 237 208 205 224 150 197 166 186 168 70 44 27 37 64 30 11 352 352 347 339 335 333 329 323 322 318 318 316 315 313 315 318